• In Österreich
  • Länderverzeichnis
  • Für 7 Tage
  • Wassertemperatur
  • Satellitenkarten
  • Wetterkarte
  • News
  • Widgets
  • user-avatar
    Anmelden

    Stündliche Wetter Chyzhky

    Heute, 16 Oktober, Dienstag

    Zeit Temperatur Niederschläge Wind Luftdruck Luftfeuchtigkeit
    00:00 +12°C° 0 mm 2 m/S 740 mmHg 59%
    01:00 +12°C° 0 mm 2 m/S 740 mmHg 58%
    02:00 +12°C° 0 mm 2 m/S 740 mmHg 56%
    03:00 +12°C° 0 mm 2 m/S 740 mmHg 55%
    04:00 +12°C° 0 mm 2 m/S 740 mmHg 55%
    05:00 +10°C° 0 mm 2 m/S 740 mmHg 54%
    06:00 +10°C° 0 mm 2 m/S 740 mmHg 55%
    07:00 +12°C° 0 mm 2 m/S 740 mmHg 56%
    08:00 +12°C° 0 mm 2 m/S 741 mmHg 55%
    09:00 +14°C° 0 mm 2 m/S 741 mmHg 50%
    10:00 +17°C° 0 mm 2 m/S 741 mmHg 44%
    11:00 +19°C° 0 mm 2 m/S 741 mmHg 39%
    12:00 +20°C° 0 mm 2 m/S 741 mmHg 37%
    13:00 +21°C° 0 mm 2 m/S 741 mmHg 36%
    14:00 +23°C° 0 mm 2 m/S 741 mmHg 34%
    15:00 +20°C° 0 mm 2 m/S 741 mmHg 40%
    16:00 +19°C° 0 mm 2 m/S 741 mmHg 47%
    17:00 +18°C° 0 mm 1 m/S 740 mmHg 53%
    18:00 +16°C° 0 mm 1 m/S 740 mmHg 55%
    19:00 +15°C° 0 mm 1 m/S 740 mmHg 57%
    20:00 +13°C° 0 mm 1 m/S 740 mmHg 59%
    21:00 +13°C° 0 mm 1 m/S 740 mmHg 59%
    22:00 +12°C° 0 mm 1 m/S 740 mmHg 58%
    23:00 +12°C° 0 mm 1 m/S 740 mmHg 58%

    Morgen, 17 Oktober, Mittwoch

    Zeit Temperatur Niederschläge Wind Luftdruck Luftfeuchtigkeit
    00:00 +12°C° 0 mm 1 m/S 740 mmHg 57%
    01:00 +11°C° 0 mm 1 m/S 740 mmHg 56%
    02:00 +11°C° 0 mm 1 m/S 740 mmHg 55%
    03:00 +11°C° 0 mm 1 m/S 740 mmHg 55%
    04:00 +11°C° 0 mm 1 m/S 740 mmHg 54%
    05:00 +10°C° 0 mm 1 m/S 740 mmHg 53%
    06:00 +11°C° 0 mm 1 m/S 740 mmHg 53%
    07:00 +11°C° 0 mm 1 m/S 740 mmHg 53%
    08:00 +11°C° 0 mm 1 m/S 740 mmHg 53%
    09:00 +14°C° 0 mm 1 m/S 740 mmHg 48%
    10:00 +16°C° 0 mm 1 m/S 740 mmHg 43%
    11:00 +20°C° 0 mm 1 m/S 740 mmHg 37%
    12:00 +21°C° 0 mm 1 m/S 740 mmHg 36%
    13:00 +21°C° 0 mm 1 m/S 740 mmHg 36%
    14:00 +22°C° 0 mm 1 m/S 740 mmHg 35%
    15:00 +21°C° 0 mm 1 m/S 739 mmHg 42%
    16:00 +19°C° 0 mm 1 m/S 739 mmHg 49%
    17:00 +18°C° 0 mm 1 m/S 739 mmHg 56%
    18:00 +15°C° 0 mm 1 m/S 739 mmHg 60%
    19:00 +14°C° 0 mm 1 m/S 739 mmHg 63%
    20:00 +13°C° 0 mm 1 m/S 739 mmHg 67%
    21:00 +13°C° 0 mm 1 m/S 739 mmHg 68%
    22:00 +12°C° 0 mm 1 m/S 738 mmHg 69%
    23:00 +12°C° 0 mm 1 m/S 738 mmHg 70%

    übermorgen, 18 Oktober, Donnerstag

    Zeit Temperatur Niederschläge Wind Luftdruck Luftfeuchtigkeit
    00:00 +12°C° 0 mm 1 m/S 738 mmHg 70%
    01:00 +12°C° 0 mm 1 m/S 738 mmHg 70%
    02:00 +11°C° 0 mm 1 m/S 738 mmHg 69%
    03:00 +11°C° 0 mm 1 m/S 738 mmHg 69%
    04:00 +11°C° 0 mm 1 m/S 738 mmHg 68%
    05:00 +11°C° 0 mm 1 m/S 738 mmHg 67%
    06:00 +11°C° 0 mm 1 m/S 738 mmHg 66%
    07:00 +11°C° 0 mm 1 m/S 738 mmHg 65%
    08:00 +12°C° 0 mm 1 m/S 738 mmHg 64%
    09:00 +14°C° 0 mm 1 m/S 738 mmHg 58%
    10:00 +16°C° 0 mm 1 m/S 738 mmHg 52%
    11:00 +19°C° 0 mm 1 m/S 738 mmHg 46%
    12:00 +20°C° 0 mm 1 m/S 738 mmHg 45%
    13:00 +21°C° 0 mm 1 m/S 738 mmHg 44%
    14:00 +21°C° 0 mm 1 m/S 737 mmHg 43%
    15:00 +20°C° 0 mm 1 m/S 737 mmHg 48%
    16:00 +19°C° 0 mm 1 m/S 737 mmHg 54%
    17:00 +16°C° 0 mm 1 m/S 737 mmHg 59%
    18:00 +15°C° 0 mm 1 m/S 737 mmHg 62%
    19:00 +14°C° 0 mm 1 m/S 737 mmHg 65%
    20:00 +13°C° 0 mm 1 m/S 737 mmHg 68%
    21:00 +13°C° 0 mm 1 m/S 737 mmHg 68%
    22:00 +13°C° 0 mm 1 m/S 737 mmHg 69%
    23:00 +13°C° 0 mm 1 m/S 737 mmHg 69%

    19 Oktober, Freitag

    Zeit Temperatur Niederschläge Wind Luftdruck Luftfeuchtigkeit
    00:00 +12°C° 0 mm 1 m/S 738 mmHg 70%
    01:00 +12°C° 0 mm 1 m/S 738 mmHg 71%
    02:00 +12°C° 0 mm 1 m/S 738 mmHg 71%
    03:00 +12°C° 0 mm 1 m/S 737 mmHg 72%
    04:00 +11°C° 0 mm 1 m/S 737 mmHg 74%
    05:00 +11°C° 0 mm 1 m/S 737 mmHg 75%
    06:00 +11°C° 0 mm 1 m/S 738 mmHg 75%
    07:00 +11°C° 0 mm 1 m/S 738 mmHg 76%
    08:00 +12°C° 0 mm 1 m/S 738 mmHg 77%
    09:00 +13°C° 0 mm 1 m/S 738 mmHg 72%
    10:00 +14°C° 0 mm 2 m/S 738 mmHg 67%
    11:00 +16°C° 0 mm 2 m/S 738 mmHg 62%
    12:00 +16°C° 0 mm 2 m/S 738 mmHg 61%
    13:00 +17°C° 0 mm 2 m/S 738 mmHg 60%
    14:00 +17°C° 0 mm 2 m/S 738 mmHg 60%
    15:00 +17°C° 0 mm 2 m/S 738 mmHg 64%
    16:00 +16°C° 0 mm 2 m/S 738 mmHg 67%
    17:00 +15°C° 0 mm 1 m/S 738 mmHg 71%
    18:00 +14°C° 0 mm 1 m/S 738 mmHg 74%
    19:00 +13°C° 0 mm 1 m/S 739 mmHg 77%
    20:00 +13°C° 0 mm 1 m/S 739 mmHg 79%
    21:00 +12°C° 0 mm 1 m/S 739 mmHg 80%
    22:00 +12°C° 0 mm 1 m/S 739 mmHg 81%
    23:00 +11°C° 0 mm 1 m/S 739 mmHg 83%

    20 Oktober, Samstag

    Zeit Temperatur Niederschläge Wind Luftdruck Luftfeuchtigkeit
    00:00 +11°C° 0 mm 1 m/S 739 mmHg 84%
    01:00 +11°C° 0 mm 1 m/S 739 mmHg 86%
    02:00 +10°C° 0 mm 1 m/S 740 mmHg 87%
    03:00 +10°C° 0 mm 1 m/S 740 mmHg 89%
    04:00 +9°C° 0 mm 1 m/S 740 mmHg 91%
    05:00 +8°C° 0 mm 2 m/S 740 mmHg 93%
    06:00 +9°C° 0 mm 1 m/S 740 mmHg 93%
    07:00 +9°C° 0 mm 1 m/S 740 mmHg 93%
    08:00 +9°C° 0 mm 1 m/S 741 mmHg 94%
    09:00 +10°C° 0 mm 2 m/S 741 mmHg 89%
    10:00 +12°C° 0 mm 2 m/S 741 mmHg 84%
    11:00 +13°C° 0 mm 2 m/S 741 mmHg 79%
    12:00 +14°C° 0 mm 2 m/S 741 mmHg 78%
    13:00 +13°C° 0 mm 3 m/S 741 mmHg 77%
    14:00 +13°C° 0 mm 3 m/S 741 mmHg 77%
    15:00 +14°C° 0 mm 2 m/S 741 mmHg 78%
    16:00 +13°C° 0 mm 2 m/S 741 mmHg 79%
    17:00 +13°C° 0 mm 2 m/S 741 mmHg 81%
    18:00 +12°C° 0 mm 2 m/S 741 mmHg 81%
    19:00 +12°C° 0 mm 2 m/S 742 mmHg 81%
    20:00 +10°C° 0 mm 2 m/S 742 mmHg 81%
    21:00 +9°C° 0 mm 2 m/S 742 mmHg 81%
    22:00 +9°C° 0 mm 2 m/S 742 mmHg 81%
    23:00 +8°C° 0 mm 2 m/S 742 mmHg 81%

    21 Oktober, Sonntag

    Zeit Temperatur Niederschläge Wind Luftdruck Luftfeuchtigkeit
    00:00 +7°C° 0 mm 2 m/S 742 mmHg 81%
    01:00 +7°C° 0 mm 2 m/S 742 mmHg 81%
    02:00 +6°C° 0 mm 2 m/S 742 mmHg 82%
    03:00 +5°C° 0 mm 2 m/S 742 mmHg 83%
    04:00 +5°C° 0 mm 2 m/S 742 mmHg 84%
    05:00 +4°C° 0 mm 2 m/S 742 mmHg 86%
    06:00 +4°C° 0 mm 2 m/S 742 mmHg 85%
    07:00 +5°C° 0 mm 2 m/S 742 mmHg 84%
    08:00 +5°C° 0 mm 2 m/S 742 mmHg 83%
    09:00 +6°C° 0 mm 2 m/S 742 mmHg 77%
    10:00 +7°C° 0 mm 3 m/S 742 mmHg 71%
    11:00 +9°C° 0 mm 3 m/S 742 mmHg 64%
    12:00 +9°C° 0 mm 3 m/S 742 mmHg 62%
    13:00 +10°C° 0 mm 3 m/S 742 mmHg 59%
    14:00 +10°C° 0 mm 4 m/S 742 mmHg 56%
    15:00 +10°C° 0 mm 3 m/S 742 mmHg 59%
    16:00 +9°C° 0 mm 3 m/S 741 mmHg 63%
    17:00 +8°C° 0 mm 2 m/S 741 mmHg 66%
    18:00 +7°C° 0 mm 2 m/S 742 mmHg 69%
    19:00 +7°C° 0 mm 2 m/S 742 mmHg 72%
    20:00 +6°C° 0 mm 2 m/S 742 mmHg 75%
    21:00 +5°C° 0 mm 2 m/S 742 mmHg 77%
    22:00 +6°C° 0 mm 1 m/S 742 mmHg 78%
    23:00 +5°C° 0 mm 1 m/S 742 mmHg 80%
    Mehr zeigen